STARLINK-35240

Satellite information

Favourite Embed

Satellite Type and Status

PAYLOADIN ORBIT

Key statistics

Satellite STARLINK-35240 at a glance.

Uptime

30

Days in orbit

Revolutions

≈ 15.4

Per day

Orbit

SSO

Sun Synchronous Orbit

Inclination

97.6

Latest

Satellite identification and parameters

Extended collection of information and parameters for STARLINK-35240.

Object identification

Identified? True

Debris? False

Object name: STARLINK-35240

International designator: 2025-211D

Object number (NORAD): 65655

Object ID (CCSDS): 65655

Country: UNITED STATES OF AMERICA (US)

Current information (Y/N): Y

Orbital parameters

Period: 93.386 minutes

Inclination: 97.6038 deg

SMA: 6818.368 km

Apoapsis: 441.353 km

Periapsis: 439.112 km

RAAN: 334.1429 deg

Eccentricy: 0.00016436

Argument of periapsis: 76.2847 deg

Mean anomaly: 330.3091 deg

Mean motion: 15.41992065 rev/day

Mean motion (dot): -0.02303538 rev/day2

B* drag term: -0.060534235 1/REarth

Two-line elements (TLE)

Creation date: Oct. 19, 2025, 2:20 a.m.

Reference frame: TEME

Reference center: EARTH

Epoch: Oct. 19, 2025, midnight UTC

TLE line 0: 0 STARLINK-35240

TLE line 1: 1 65655U 25211D 25292.00003472 -.02303538 00000-0 -60534-1 0 9999

TLE line 2: 2 65655 97.6038 334.1429 0001644 76.2847 330.3091 15.41992065 5733

Live tracking on map

Real-time ground track for satellite STARLINK-35240.

In-orbit conjunctions

There are no conjunctions computed for STARLINK-35240, at the moment. Check back to stay up to date, as we update our databases every day.

Go to all conjunctions

Associated space launch

A batch of 24 satellites for the Starlink mega-constellation - SpaceX's project for space-based Internet communication system.

STARLINK-35240 was lifted into orbit during the mission ‘Falcon 9 Block 5 | Starlink Group 17-12’, on board a Falcon 9 space rocket.

The launch took place on Sept. 19, 2025, 4:31 p.m. from Space Launch Complex 4E.

For more information about the launch, click the button.

Launch to space Falcon 9 Block 5 | Starlink Group 17-12
Falcon 9 Block 5 | Starlink Group 17-12

Agency: SpaceX

Status: Launch Successful

Launch date: Sept. 19, 2025, 4:31 p.m. UTC

Rocket: Falcon 9

Launch pad: Space Launch Complex 4E

Location: Vandenberg SFB, CA, USA

...

Latest news about this satellite

News about space launch
Live coverage: SpaceX to launch 24 Starlink satellites on Falcon 9 rocket from Vandenberg SFB

The Starlink 17-12 mission will send the two dozen broadband internet satellites into a polar, low Earth orbit. SpaceX is targeting liftoff from pad 4E at Vandenberg Space Force Base at 8:43 a.m. PDT (11:43 a.m. EDT / 1543 UTC).

News about space launch
Launch Roundup: Starlink, NRO, and New Shepard missions scheduled

Another busy week of launches has arrived, with SpaceX dominating the launch manifest with four… The post Launch Roundup: Starlink, NRO, and New Shepard missions scheduled appeared first on NASASpaceFlight.com.


Newsletter sign-up

Weekly statistics, charts and insights to help you stay on top of the space industry.